Voltar ao catálogo

DELTA 1 DEB

AtivoPO
NORAD 7836·DEBRIS·🇺🇸 United States

Lançado Jul 23, 1972 de Vandenberg Space Force Base

Loading…

Próximas Passagens (próximas 24 horas)

TLE

AtualizadoSource: Space-Track

Época: Sep 14, 2026, 10:31 UTC

1 07836U 72058G   26257.43832437  .00000037  00000-0  33934-4 0  9998
2 07836  97.9769  63.2356 0323295  36.2725 325.9895 13.97110177651377

Acompanhe DELTA 1 DEB em tempo real com AllMySat

Download on the App Store